"Pseudo-MPEC" for orA4607

Created 2026 Jul 28 10:35:15 UT using Find_Orb

Click here for an explanation of pseudo-MPECs

 
 Astrometry: 
     orA4607*KB2026 07 17.93545117 00 01.392+66 05 03.19   ~7NF5 20.3 gZNEOCPJ43
     orA4607 KB2026 07 17.94270817 00 00.185+66 05 30.26   ~7NF5       ZNEOCPJ43
     orA4607 KB2026 07 17.94995416 59 59.083+66 05 56.98   ~7NF5 20.9 gZNEOCPJ43

Station data:
(J43) Oukaïmeden Observatory, Marrakech  (N31.206437 W7.866460)  Morocco.
   Observer C. Rinner. Measurers C. Rinner, M. Ory. 0.5-m f/3 reflector + CCD.

Orbital elements:  orA4607
   Perihelion 2026 Aug 25.457492 +/- 13.7 TT = 10:58:47.3 (JD 2461277.957492)
Epoch 2026 Jul 18.0 TT = JDT 2461239.5   Earth MOID: 0.0606      AutoNEOCP
M 339.594255804 +/- 11              (J2000 ecliptic)
n   0.530605171 +/- 0.343           Peri.  170.776955 +/- 60
a   1.511083268 +/- 0.65            Node   168.420828 +/- 60
e   0.37780236 +/- 0.283            Incl.   13.615044 +/- 10
P   1.858/678.458d         H 20.84  G  0.15   U 12.0  SR
q 0.940192442 +/- 0.0397    Q 2.081974094 +/- 32.8
From 3 observations 2026 July 17 (20.9 min); mean residual 0".11
Residuals in arcseconds: 
260717 J43  .10+  .04-    260717 J43  .21-  .08+    260717 J43  .10+  .04-    

Ephemerides (geocentric):
Date (UTC) HH   RA             Dec           delta  r     elong  mag " sig PA
---- --------  ------------   ------------  ------ ------ -----  --- --------
2026 07 28 11  16 04 39.128   +79 05 31.44  .16573 .98747  75.7 20.3  40d 167
2026 07 28 12  16 04 03.921   +79 09 04.88  .16561 .98734  75.6 20.3  40d 167
2026 07 28 13  16 03 28.261   +79 12 38.41  .16548 .98720  75.6 20.3  40d 167
2026 07 28 14  16 02 52.141   +79 16 12.02  .16536 .98707  75.5 20.3  40d 167
2026 07 28 15  16 02 15.552   +79 19 45.71  .16524 .98693  75.5 20.3  40d 167
2026 07 28 16  16 01 38.485   +79 23 19.46  .16512 .98680  75.4 20.3  40d 167
2026 07 28 17  16 01 00.931   +79 26 53.29  .16500 .98667  75.4 20.3  40d 167
2026 07 28 18  16 00 22.883   +79 30 27.17  .16488 .98653  75.3 20.3  40d 167
2026 07 28 19  15 59 44.330   +79 34 01.11  .16475 .98640  75.3 20.3  40d 167
2026 07 28 20  15 59 05.263   +79 37 35.10  .16463 .98627  75.2 20.3  40d 168
2026 07 28 21  15 58 25.674   +79 41 09.12  .16451 .98613  75.2 20.3  40d 168
2026 07 28 22  15 57 45.551   +79 44 43.19  .16439 .98600  75.1 20.3  40d 168
2026 07 28 23  15 57 04.886   +79 48 17.28  .16427 .98587  75.1 20.3  40d 168
2026 07 29 00  15 56 23.667   +79 51 51.39  .16415 .98574  75.0 20.3  40d 168
2026 07 29 01  15 55 41.886   +79 55 25.51  .16403 .98561  75.0 20.3  40d 168
2026 07 29 02  15 54 59.530   +79 58 59.64  .16391 .98547  74.9 20.3  40d 168
2026 07 29 03  15 54 16.589   +80 02 33.77  .16379 .98534  74.9 20.3  40d 168
2026 07 29 04  15 53 33.053   +80 06 07.89  .16367 .98521  74.8 20.3  40d 168
2026 07 29 05  15 52 48.909   +80 09 41.99  .16355 .98508  74.8 20.3  40d 168
2026 07 29 06  15 52 04.146   +80 13 16.07  .16343 .98495  74.7 20.3  41d 168
2026 07 29 07  15 51 18.751   +80 16 50.11  .16331 .98482  74.7 20.3  41d 168
2026 07 29 08  15 50 32.714   +80 20 24.11  .16319 .98469  74.6 20.3  41d 169
2026 07 29 09  15 49 46.021   +80 23 58.06  .16307 .98455  74.6 20.3  41d 169
2026 07 29 10  15 48 58.660   +80 27 31.95  .16295 .98442  74.5 20.3  41d 169
2026 07 29 11  15 48 10.617   +80 31 05.77  .16283 .98429  74.5 20.3  41d 169
2026 07 29 12  15 47 21.880   +80 34 39.51  .16271 .98416  74.4 20.3  41d 169
2026 07 29 13  15 46 32.434   +80 38 13.16  .16259 .98403  74.4 20.3  41d 169
2026 07 29 14  15 45 42.265   +80 41 46.71  .16248 .98390  74.3 20.3  41d 169
2026 07 29 15  15 44 51.360   +80 45 20.14  .16236 .98377  74.3 20.3  41d 169
2026 07 29 16  15 43 59.704   +80 48 53.46  .16224 .98364  74.2 20.3  41d 169
2026 07 29 17  15 43 07.281   +80 52 26.64  .16212 .98351  74.2 20.3  41d 169
2026 07 29 18  15 42 14.077   +80 55 59.68  .16200 .98339  74.1 20.3  41d 169
2026 07 29 19  15 41 20.075   +80 59 32.57  .16188 .98326  74.1 20.3  41d 169
2026 07 29 20  15 40 25.260   +81 03 05.28  .16177 .98313  74.0 20.3  41d 169
2026 07 29 21  15 39 29.615   +81 06 37.81  .16165 .98300  74.0 20.3  41d 170
2026 07 29 22  15 38 33.124   +81 10 10.15  .16153 .98287  73.9 20.3  41d 170
2026 07 29 23  15 37 35.769   +81 13 42.28  .16142 .98274  73.9 20.3  41d 170
2026 07 30 00  15 36 37.532   +81 17 14.19  .16130 .98261  73.8 20.3  41d 170
2026 07 30 01  15 35 38.397   +81 20 45.86  .16118 .98249  73.8 20.3  41d 170
2026 07 30 02  15 34 38.344   +81 24 17.29  .16107 .98236  73.7 20.3  41d 170
2026 07 30 03  15 33 37.354   +81 27 48.45  .16095 .98223  73.7 20.3  41d 170
2026 07 30 04  15 32 35.409   +81 31 19.32  .16083 .98210  73.6 20.3  41d 170
2026 07 30 05  15 31 32.489   +81 34 49.90  .16072 .98197  73.6 20.3  41d 170
2026 07 30 06  15 30 28.573   +81 38 20.17  .16060 .98185  73.6 20.3  41d 170
2026 07 30 07  15 29 23.641   +81 41 50.11  .16048 .98172  73.5 20.3  41d 170
2026 07 30 08  15 28 17.673   +81 45 19.70  .16037 .98159  73.5 20.3  41d 170
2026 07 30 09  15 27 10.646   +81 48 48.93  .16025 .98147  73.4 20.3  42d 170
2026 07 30 10  15 26 02.538   +81 52 17.77  .16014 .98134  73.4 20.3  42d 171